Location: Home
(42.5358°N, 72.7383°W)
Time: 13:06:58
(UTC-05:00)

A-11 Canister half - Pass Details

Date: 02 December 2021
Orbit: 1524 x 1684 km, 47.3° (Epoch: 26 January)

Event Time Altitude Azimuth Distance (km) Brightness Sun altitude
Rises 06:55:11 0° 293° (WNW) 4,913 - -2.0°
Exits shadow 06:55:50 - 293° (WNW) 4,709 10.8 -1.9°
Reaches altitude 10° 06:58:22 10° 293° (WNW) 3,909 10.5 -1.5°
Maximum altitude 07:08:24 85° 207° (SSW) 1,628 9.3 0.1°
Drops below altitude 10° 07:18:03 10° 120° (ESE) 3,774 13.6 1.6°
Sets 07:21:04 0° 120° (ESE) 4,737 15.1 2.1°
